[[{"header":{"parameterUnit":"m.s-1","parameterCategory":1,"la1":30.2991,"la2":30.254,"lo1":-89.0895,"lo2":-89.0444,"dy":0.0017,"dx":0.0017,"nx":28,"ny":28,"refTime":"2024-06-20T21:00:00:Z","depth":0,"parameterNumber":2,"parameterNumberName":"U-component_of_WINDS"},"data":[0,0,0,0,0,0,0,0,0,0,0,0,0,0,0,0,0,0,0,0,0,0,0,0,0,0,0,0,0,0,0,0,0,0,0,0,0,0,0,0,0,0,0,0,0,0,0,0,0,0,0,0,0,0,0,0,0,0,-5.2179,-5.2181,0,-5.2348,-5.235,-5.2352,-5.2258,-5.2253,-5.2248,-5.2244,-5.2419,-5.2428,-5.2437,0,0,0,0,0,0,0,0,0,0,0,0,0,-5.1775,-5.1783,-5.2179,-5.2181,-5.2183,-5.2348,-5.235,-5.2352,-5.2259,-5.2253,-5.2247,-5.2242,-5.2416,-5.2427,-5.2438,0,0,0,0,0,0,0,0,0,0,0,0,0,-5.1948,-5.1785,-5.2178,-5.2156,-5.2156,-5.2347,-5.235,-5.2353,-5.226,-5.2253,-5.2246,-5.2239,-5.2413,-5.2426,-5.2439,-5.2663,0,0,-5.248,-5.2486,0,0,0,0,0,0,0,0,-5.1938,-5.1963,-5.2157,-5.2158,-5.2158,-5.2275,-5.2272,-5.2457,-5.2262,-5.222,-5.2244,-5.2236,-5.2377,-5.2393,-5.244,-5.2671,-5.2679,-5.2482,-5.249,-5.2496,-5.2499,0,0,0,0,0,0,0,-5.1926,-5.1955,-5.2246,-5.216,-5.2161,-5.2138,-5.2155,-5.2306,-5.2336,-5.2223,-5.2217,-5.2238,-5.2376,-5.2427,-5.2443,-5.2681,-5.2481,-5.2493,-5.2502,-5.2507,-5.3103,-5.311,0,0,0,0,0,0,-5.1916,-5.1946,-5.224,-5.2251,-5.2028,-5.2151,-5.2169,-5.2244,-5.2334,-5.2341,-5.2244,-5.2233,-5.2408,-5.2428,-5.2449,-5.2716,-5.2496,-5.2508,-5.2516,-5.3095,-5.3104,-5.3113,0,0,0,0,0,0,-5.1907,-5.1943,-5.2233,-5.2097,-5.2132,-5.2165,-5.225,-5.2251,-5.2303,-5.235,-5.2354,-5.2291,-5.2403,-5.243,-5.261,-5.272,-5.2514,-5.2527,-5.3086,-5.3098,-5.3108,-5.3251,0,0,0,0,0,0,-5.1896,-5.194,-5.2026,-5.2099,-5.2139,-5.2392,-5.2257,-5.226,-5.2326,-5.2313,-5.2395,-5.2402,-5.2399,-5.259,-5.2623,-5.2735,-5.2537,-5.3076,-5.3091,-5.3105,-5.3237,-5.3266,-5.3292,0,0,0,0,0,-5.1882,-5.206,-5.203,-5.2066,-5.2247,-5.2398,-5.2421,-5.2414,-5.2335,-5.2421,-5.2451,-5.2399,-5.2703,-5.261,-5.2646,-5.2764,-5.3069,-5.3087,-5.3104,-5.3225,-5.3261,-5.3291,0,0,0,0,0,0,-5.1999,-5.2069,-5.2037,-5.2244,-5.2316,-5.2382,-5.249,-5.2453,-5.2549,-5.2533,-5.2521,-5.254,-5.2727,-5.2763,-5.2658,-5.2984,-5.2874,-5.2899,-5.2953,-5.2988,-5.3015,-5.3001,-5.2548,0,0,0,0,0,-5.2049,-5.2166,-5.2221,-5.2398,-5.2435,-5.2457,-5.2523,-5.2511,-5.2585,-5.2615,-5.2658,-5.2732,-5.2844,-5.2918,-5.3024,-5.3242,-5.3258,-5.3341,-5.3368,-5.339,-5.3412,-5.3529,-5.3566,-5.317,-5.3169,-5.3169,0,0,-5.2153,-5.2206,-5.228,-5.2423,-5.2477,-5.2598,-5.2483,-5.2616,-5.2706,-5.2635,-5.2807,-5.2842,-5.2923,-5.3123,-5.3213,-5.3159,-5.3525,-5.3413,-5.343,-5.344,-5.3551,-5.3588,-5.3621,-5.3181,-5.3179,-5.3177,0,0,-5.2405,-5.2457,-5.2609,-5.2666,-5.2749,-5.2762,-5.2798,-5.2871,-5.289,-5.3062,-5.3011,-5.3118,-5.3312,-5.3372,-5.3428,-5.3701,-5.3657,-5.3736,-5.3879,-5.3993,-5.4024,-5.4051,-5.4148,-5.4183,-5.3758,-5.3759,-5.3759,0,-5.2524,-5.2704,-5.2692,-5.2829,-5.2893,-5.2834,-5.2988,-5.3044,-5.3158,-5.3203,-5.3141,-5.3382,-5.3433,-5.3645,-5.3711,-5.3759,-5.38,-5.3726,-5.402,-5.4048,-5.4073,-5.4165,-5.4202,-5.3768,-5.3767,-5.3766,-5.3765,0,-5.2845,-5.2971,-5.3084,-5.3194,-5.3271,-5.3416,-5.3427,-5.3506,-5.3488,-5.3508,-5.3683,-5.3742,-5.3858,-5.3908,-5.3892,-5.4118,-5.4082,-5.4021,-5.3909,-5.412,-5.4206,-5.4241,-5.378,-5.3777,-5.3775,-5.3772,0,0,-5.3175,-5.3276,-5.3318,-5.3367,-5.3454,-5.3551,-5.3693,-5.3806,-5.3874,-5.3954,-5.4073,-5.4238,-5.4181,-5.4245,-5.4235,-5.4335,-5.4547,-5.4262,-5.4263,-5.4311,-5.4798,-5.4842,-5.4883,-5.4518,-5.4525,-5.453,-5.479,0,-5.343,-5.3678,-5.3672,-5.3902,-5.4018,-5.3963,-5.4087,-5.4154,-5.4176,-5.4277,-5.4302,-5.4418,-5.4336,-5.4374,-5.447,-5.45,-5.4644,-5.4482,-5.4628,-5.4633,-5.4607,-5.4928,-5.4976,-5.5218,-5.4824,-5.483,-5.4834,0,-5.3762,-5.3852,-5.4094,-5.4163,-5.4211,-5.4322,-5.4424,-5.4522,-5.4597,-5.4606,-5.4677,-5.4651,-5.4796,-5.4681,-5.4879,-5.4769,-5.4829,-5.4852,-5.4862,-5.4874,-5.4745,-5.4948,-5.5296,-5.5332,-5.4887,-5.4882,-5.4879,0,-5.3976,-5.4159,-5.4326,-5.437,-5.4455,-5.4534,-5.4574,-5.4641,-5.4709,-5.4799,-5.4843,-5.4949,-5.5007,-5.5089,-5.5093,-5.5009,-5.5293,-5.5179,-5.5304,-5.5304,-5.5365,-5.5361,-5.5726,-5.5406,-5.5405,-5.5404,-5.5404,0,-5.4261,-5.4411,-5.4423,-5.4526,-5.4692,-5.4684,-5.4848,-5.488,-5.4941,-5.5049,-5.5009,-5.5112,-5.5111,-5.5215,-5.5219,-5.5382,-5.5409,-5.542,-5.5419,-5.5423,-5.5421,-5.5461,-5.5444,-5.5414,-5.5412,-5.541,-5.5408,0,-5.4528,-5.4542,-5.4721,-5.4787,-5.4807,-5.4926,-5.4983,-5.5081,-5.5099,-5.5236,-5.5268,-5.5298,-5.5418,-5.543,-5.5571,-5.5574,-5.577,-5.5752,-5.5745,-5.5741,-5.5865,-5.5852,-5.6267,-5.6321,-5.5967,-5.597,-5.5973,0,-5.4709,-5.4822,-5.49,-5.4969,-5.5012,-5.5125,-5.5193,-5.519,-5.5263,-5.5356,-5.5443,-5.556,-5.5653,-5.5849,-5.5883,-5.599,-5.5973,-5.6111,-5.5989,-5.5989,-5.5974,-5.5966,-5.5977,-5.6134,-5.6138,-5.6141,-5.6144,0,-5.5027,-5.5028,-5.5128,-5.5232,-5.5314,-5.5396,-5.5471,-5.5531,-5.5536,-5.5621,-5.5743,-5.5816,-5.5959,-5.6075,-5.618,-5.6221,-5.6184,-5.6182,-5.6217,-5.6221,-5.6212,-5.6217,-5.5808,-5.6173,-5.617,-5.6168,-5.6166,-5.6165,-5.5255,-5.5353,-5.5422,-5.5535,-5.5592,-5.5664,-5.5758,-5.5788,-5.589,-5.6006,-5.5998,-5.6133,-5.6204,-5.6342,-5.639,-5.6496,-5.645,-5.65,-5.6513,-5.6525,-5.6537,-5.6196,-5.6516,-5.6515,-5.6514,-5.6513,-5.6513,0,-5.557,-5.5612,-5.5716,-5.5822,-5.5911,-5.5868,-5.595,-5.6027,-5.6146,-5.6216,-5.6308,-5.6449,-5.6561,-5.6604,-5.6713,-5.679,-5.6776,-5.6819,-5.6813,-5.6822,-5.6572,-5.6531,-5.6828,-5.6828,-5.6828,-5.6828,-5.6828,-5.6828,-5.5744,-5.5907,-5.5916,-5.6107,-5.6148,-5.6279,-5.633,-5.6395,-5.645,-5.6609,-5.6702,-5.6729,-5.6788,-5.6901,-5.7002,-5.7012,-5.7054,-5.7104,-5.7106,-5.6872,-5.684,-5.681,-5.6771,-5.7113,-5.7114,-5.7347,-5.7349,-5.7351]},{"header":{"parameterUnit":"m.s-1","parameterCategory":1,"la1":30.2991,"la2":30.254,"lo1":-89.0895,"lo2":-89.0444,"dy":0.0017,"dx":0.0017,"nx":28,"ny":28,"refTime":"2024-06-20T21:00:00:Z","depth":0,"parameterNumber":3,"parameterNumberName":"V-component_of_WINDS"},"data":[0,0,0,0,0,0,0,0,0,0,0,0,0,0,0,0,0,0,0,0,0,0,0,0,0,0,0,0,0,0,0,0,0,0,0,0,0,0,0,0,0,0,0,0,0,0,0,0,0,0,0,0,0,0,0,0,0,0,1.2911,1.2911,0,1.2893,1.2892,1.2892,1.2893,1.2893,1.2893,1.2893,1.2868,1.2867,1.2867,0,0,0,0,0,0,0,0,0,0,0,0,0,1.2942,1.2941,1.2911,1.2911,1.291,1.2893,1.2892,1.2892,1.2893,1.2893,1.2893,1.2894,1.2869,1.2868,1.2867,0,0,0,0,0,0,0,0,0,0,0,0,0,1.2926,1.2941,1.2911,1.2909,1.2908,1.2893,1.2892,1.2892,1.2893,1.2893,1.2893,1.2894,1.2869,1.2868,1.2866,1.285,0,0,1.2862,1.2862,0,0,0,0,0,0,0,0,1.2927,1.2925,1.2909,1.2909,1.2908,1.2895,1.2894,1.2878,1.2892,1.2898,1.2893,1.2894,1.2877,1.2875,1.287,1.2849,1.2848,1.2862,1.2861,1.2861,1.286,0,0,0,0,0,0,0,1.2928,1.2926,1.2903,1.2909,1.2908,1.2907,1.2905,1.2891,1.2885,1.2898,1.2898,1.2896,1.2876,1.2871,1.287,1.2847,1.2862,1.2861,1.286,1.2859,1.2813,1.2812,0,0,0,0,0,0,1.2931,1.2927,1.2904,1.2903,1.2919,1.2906,1.2904,1.2899,1.2885,1.2884,1.2896,1.2896,1.2874,1.2871,1.2869,1.2849,1.2861,1.2859,1.2859,1.2813,1.2812,1.2812,0,0,0,0,0,0,1.2931,1.2929,1.2905,1.2915,1.2912,1.2905,1.2899,1.2898,1.2894,1.2884,1.2882,1.2892,1.2874,1.2871,1.2855,1.2848,1.2859,1.2857,1.2813,1.2813,1.2812,1.281,0,0,0,0,0,0,1.2932,1.2929,1.2923,1.2915,1.2911,1.2893,1.2899,1.2898,1.2892,1.2892,1.288,1.2878,1.2874,1.2857,1.2854,1.2847,1.2856,1.2814,1.2813,1.2812,1.281,1.2809,1.2808,0,0,0,0,0,1.2933,1.2922,1.2923,1.292,1.2905,1.2893,1.289,1.2887,1.2891,1.2885,1.2879,1.2879,1.285,1.2856,1.2852,1.2844,1.2814,1.2813,1.2812,1.2811,1.2809,1.2808,0,0,0,0,0,0,1.2927,1.292,1.2922,1.2907,1.2901,1.2893,1.2885,1.2886,1.2876,1.2876,1.2871,1.2868,1.2853,1.2847,1.2854,1.2828,1.2832,1.2831,1.2833,1.2831,1.283,1.2831,1.2855,0,0,0,0,0,1.2924,1.2916,1.2911,1.2898,1.2895,1.2891,1.2885,1.2884,1.2876,1.2873,1.2865,1.2856,1.2845,1.2838,1.2827,1.281,1.2807,1.2803,1.2802,1.2801,1.2799,1.279,1.2788,1.2809,1.2809,1.2809,0,0,1.2917,1.2913,1.2908,1.2897,1.2892,1.2883,1.2888,1.2878,1.2871,1.287,1.2856,1.2851,1.284,1.2824,1.2817,1.2819,1.2793,1.2799,1.2799,1.2797,1.2789,1.2787,1.2785,1.2808,1.2808,1.2808,0,0,1.2901,1.2897,1.2887,1.2883,1.2876,1.2873,1.2871,1.2863,1.286,1.2847,1.2847,1.2837,1.2818,1.2812,1.2805,1.2789,1.2788,1.2786,1.2779,1.2771,1.2769,1.2768,1.2762,1.276,1.2784,1.2784,1.2784,0,1.2893,1.2881,1.2881,1.2872,1.2867,1.2869,1.2859,1.2854,1.2842,1.2838,1.2841,1.2819,1.2812,1.2795,1.2792,1.2787,1.2783,1.2786,1.277,1.2768,1.2767,1.2761,1.2759,1.2784,1.2784,1.2784,1.2784,0,1.2872,1.2863,1.2856,1.2848,1.2843,1.2833,1.2831,1.2825,1.2825,1.2822,1.2808,1.28,1.2789,1.2785,1.2783,1.2768,1.2769,1.2771,1.2775,1.2765,1.276,1.2757,1.2784,1.2784,1.2784,1.2784,0,0,1.2848,1.2843,1.284,1.2837,1.2831,1.2824,1.2814,1.2806,1.2801,1.2794,1.2785,1.277,1.2773,1.2766,1.2764,1.2757,1.2745,1.276,1.2759,1.2757,1.2729,1.2727,1.2725,1.2746,1.2745,1.2745,1.273,0,1.2831,1.2816,1.2817,1.2802,1.2794,1.2797,1.2789,1.2784,1.2781,1.2774,1.277,1.276,1.2764,1.276,1.2753,1.2748,1.274,1.2749,1.2736,1.2736,1.2738,1.2722,1.272,1.2706,1.2728,1.2727,1.2727,0,1.2808,1.2803,1.2788,1.2785,1.2782,1.2774,1.2767,1.2761,1.2755,1.2753,1.2748,1.2747,1.2737,1.2743,1.2728,1.2735,1.273,1.2727,1.2726,1.2724,1.273,1.2719,1.2701,1.2699,1.2724,1.2724,1.2724,0,1.2792,1.2782,1.2772,1.277,1.2765,1.276,1.2758,1.2753,1.2748,1.2742,1.2739,1.273,1.2725,1.2718,1.2716,1.272,1.2701,1.2706,1.2699,1.2699,1.2693,1.2694,1.2674,1.2691,1.2691,1.2691,1.2691,0,1.2773,1.2763,1.2766,1.2759,1.2749,1.2751,1.274,1.2738,1.2734,1.2727,1.2728,1.2721,1.2719,1.2711,1.2709,1.2697,1.2695,1.2693,1.2692,1.2692,1.2693,1.2688,1.2689,1.2691,1.2691,1.2691,1.2691,0,1.2753,1.2754,1.2744,1.2742,1.2741,1.2734,1.2731,1.2725,1.2724,1.2715,1.2713,1.2711,1.2702,1.2699,1.2688,1.2687,1.2673,1.2673,1.2676,1.2675,1.2668,1.2669,1.2644,1.2641,1.2661,1.2661,1.2661,0,1.2739,1.2733,1.2731,1.2728,1.2726,1.272,1.2716,1.2718,1.2713,1.2708,1.2702,1.2695,1.2688,1.2674,1.267,1.2662,1.2662,1.2654,1.2661,1.2662,1.2662,1.2662,1.2662,1.2653,1.2652,1.2652,1.2652,0,1.2716,1.2718,1.2713,1.2709,1.2705,1.2702,1.2698,1.2695,1.2696,1.2691,1.2684,1.2679,1.267,1.2661,1.2654,1.265,1.2651,1.2651,1.2648,1.2648,1.265,1.2649,1.2672,1.2651,1.2651,1.2651,1.2651,1.2651,1.2699,1.2694,1.2693,1.2688,1.2686,1.2683,1.2678,1.2678,1.2672,1.2666,1.2667,1.2659,1.2655,1.2645,1.2642,1.2635,1.2637,1.2633,1.2632,1.2631,1.2631,1.2652,1.2633,1.2633,1.2633,1.2633,1.2633,0,1.2675,1.2676,1.2671,1.2668,1.2664,1.2669,1.2666,1.2662,1.2656,1.2653,1.2648,1.264,1.2633,1.263,1.2623,1.2618,1.2618,1.2616,1.2616,1.2615,1.2629,1.2632,1.2616,1.2616,1.2616,1.2616,1.2616,1.2616,1.2663,1.2655,1.2657,1.2648,1.2648,1.2642,1.264,1.2637,1.2635,1.2627,1.2623,1.2622,1.2619,1.2612,1.2606,1.2605,1.2603,1.26,1.2599,1.2612,1.2614,1.2616,1.2618,1.26,1.2599,1.2586,1.2586,1.2586]}]]